FFT1326 KSAN-KLAS

Flight info

Callsign FFT1326
Flight time 0h 50m
Altitude 29000
Route PADRZ2 CHKNN SEBBY YELAH MISEN RNDRZ4
Aircraft A320/M-SDE3FGHIRWY/LB1

Departure

Time 2026-05-05 04:46
Airport San Diego International Airport (KSAN)

Arrival

Time 2026-05-05 05:37
Airport Harry Reid International Airport (KLAS)
Time Latitude Longitude Altitude Speed Heading
2026-05-05 04:21 32.73378 -117.20349 23 ft 0 kts 264°
2026-05-05 04:30 32.73378 -117.20348 23 ft 0 kts 264°
2026-05-05 04:36 32.73379 -117.20337 23 ft 3 kts 267°
2026-05-05 04:36 32.73379 -117.20313 23 ft 3 kts 280°
2026-05-05 04:36 32.73374 -117.20291 27 ft 3 kts 304°
2026-05-05 04:36 32.73362 -117.20276 26 ft 2 kts 344°
2026-05-05 04:37 32.73358 -117.20275 25 ft 1 kts 348°
2026-05-05 04:40 32.73370 -117.20277 24 ft 9 kts 351°
2026-05-05 04:40 32.73451 -117.20257 23 ft 11 kts 11°
2026-05-05 04:41 32.73519 -117.20232 23 ft 9 kts 31°
2026-05-05 04:41 32.73544 -117.20176 23 ft 7 kts 96°
2026-05-05 04:41 32.73519 -117.20068 23 ft 21 kts 106°
2026-05-05 04:41 32.73478 -117.19894 23 ft 22 kts 105°
2026-05-05 04:42 32.73436 -117.19721 23 ft 22 kts 105°
2026-05-05 04:42 32.73391 -117.19541 23 ft 23 kts 107°
2026-05-05 04:42 32.73350 -117.19367 22 ft 22 kts 105°
2026-05-05 04:42 32.73308 -117.19196 22 ft 21 kts 106°
2026-05-05 04:43 32.73267 -117.19026 23 ft 21 kts 106°
2026-05-05 04:43 32.73227 -117.18858 25 ft 21 kts 107°
2026-05-05 04:43 32.73187 -117.18696 23 ft 20 kts 106°
2026-05-05 04:43 32.73149 -117.18538 22 ft 19 kts 106°
2026-05-05 04:44 32.73113 -117.18388 23 ft 18 kts 106°
2026-05-05 04:44 32.73080 -117.18252 22 ft 16 kts 106°
2026-05-05 04:44 32.73042 -117.18098 24 ft 25 kts 107°
2026-05-05 04:44 32.72996 -117.17909 23 ft 21 kts 105°
2026-05-05 04:45 32.72957 -117.17763 22 ft 15 kts 107°
2026-05-05 04:45 32.72964 -117.17658 22 ft 12 kts 68°
2026-05-05 04:45 32.73021 -117.17614 22 ft 9 kts 336°
2026-05-05 04:45 32.73047 -117.17689 22 ft 17 kts 286°
2026-05-05 04:46 32.73141 -117.18090 21 ft 86 kts 287°
2026-05-05 04:46 32.73363 -117.19006 26 ft 142 kts 285°
2026-05-05 04:46 32.73678 -117.20224 433 ft 157 kts 285°
2026-05-05 04:46 32.74062 -117.21451 1171 ft 159 kts 296°
2026-05-05 04:47 32.74643 -117.22563 1905 ft 160 kts 302°
2026-05-05 04:47 32.75308 -117.23717 2287 ft 179 kts 303°
2026-05-05 04:47 32.76059 -117.25016 2558 ft 202 kts 302°
2026-05-05 04:47 32.76890 -117.26469 2862 ft 224 kts 302°
2026-05-05 04:48 32.77807 -117.28086 3306 ft 247 kts 302°
2026-05-05 04:48 32.78770 -117.29790 4082 ft 255 kts 302°
2026-05-05 04:48 32.79764 -117.31554 5009 ft 258 kts 303°
2026-05-05 04:48 32.80820 -117.33303 5891 ft 263 kts 305°
2026-05-05 04:49 32.81942 -117.35042 6750 ft 266 kts 306°
2026-05-05 04:49 32.83092 -117.36790 7546 ft 271 kts 306°
2026-05-05 04:49 32.84268 -117.38576 7892 ft 274 kts 305°
2026-05-05 04:49 32.85450 -117.40378 8420 ft 277 kts 304°
2026-05-05 04:50 32.86633 -117.42195 9320 ft 278 kts 304°
2026-05-05 04:50 32.87821 -117.44033 10134 ft 282 kts 303°
2026-05-05 04:50 32.89032 -117.45919 10530 ft 301 kts 303°
2026-05-05 04:50 32.90345 -117.47978 10751 ft 324 kts 303°
2026-05-05 04:51 32.91744 -117.50168 11202 ft 337 kts 303°
2026-05-05 04:51 32.93180 -117.52404 11882 ft 342 kts 303°
2026-05-05 04:51 32.94635 -117.54659 12598 ft 345 kts 303°
2026-05-05 04:51 32.96108 -117.56940 13312 ft 349 kts 303°
2026-05-05 04:52 32.97595 -117.59245 14008 ft 352 kts 303°
2026-05-05 04:52 32.99088 -117.61568 14652 ft 355 kts 302°
2026-05-05 04:52 33.00592 -117.63914 15310 ft 357 kts 302°
2026-05-05 04:52 33.02100 -117.66270 15965 ft 358 kts 301°
2026-05-05 04:53 33.03101 -117.67837 16412 ft 359 kts 301°
2026-05-05 04:53 33.04617 -117.70213 17058 ft 361 kts 301°
2026-05-05 04:53 33.06182 -117.72576 17703 ft 366 kts 305°
2026-05-05 04:53 33.08063 -117.74687 18317 ft 375 kts 312°
2026-05-05 04:54 33.10060 -117.76704 18847 ft 378 kts 311°
2026-05-05 04:54 33.12726 -117.79402 19521 ft 381 kts 311°
2026-05-05 04:54 33.14091 -117.80787 19864 ft 382 kts 311°
2026-05-05 04:54 33.16125 -117.82856 20367 ft 385 kts 311°
2026-05-05 04:55 33.18144 -117.84913 20859 ft 388 kts 310°
2026-05-05 04:55 33.20204 -117.87008 21342 ft 391 kts 310°
2026-05-05 04:55 33.22306 -117.89100 21831 ft 394 kts 311°
2026-05-05 04:55 33.24437 -117.91182 22300 ft 397 kts 311°
2026-05-05 04:56 33.26595 -117.93266 22772 ft 400 kts 311°
2026-05-05 04:56 33.28764 -117.95359 23239 ft 402 kts 311°
2026-05-05 04:56 33.30952 -117.97479 23688 ft 405 kts 311°
2026-05-05 04:56 33.33140 -117.99611 24095 ft 406 kts 311°
2026-05-05 04:57 33.35333 -118.01754 24499 ft 407 kts 310°
2026-05-05 04:57 33.37504 -118.03876 24906 ft 408 kts 310°
2026-05-05 04:57 33.39702 -118.06027 25314 ft 409 kts 310°
2026-05-05 04:57 33.41902 -118.08183 25724 ft 409 kts 310°
2026-05-05 04:58 33.44108 -118.10348 26128 ft 410 kts 309°
2026-05-05 04:58 33.46315 -118.12516 26528 ft 410 kts 309°
2026-05-05 04:58 33.48528 -118.14690 26935 ft 411 kts 309°
2026-05-05 04:58 33.50743 -118.16869 27324 ft 412 kts 309°
2026-05-05 04:59 33.52959 -118.19053 27708 ft 413 kts 309°
2026-05-05 04:59 33.55183 -118.21244 28082 ft 414 kts 308°
2026-05-05 04:59 33.57511 -118.23332 28449 ft 425 kts 315°
2026-05-05 04:59 33.60167 -118.25053 28781 ft 440 kts 322°
2026-05-05 05:00 33.62923 -118.26563 29014 ft 441 kts 322°
2026-05-05 05:00 33.68455 -118.29437 29053 ft 440 kts 330°
2026-05-05 05:00 33.71558 -118.30062 29064 ft 466 kts 346°
2026-05-05 05:01 33.74883 -118.29629 29058 ft 495 kts
2026-05-05 05:01 33.78121 -118.27973 29057 ft 521 kts 24°
2026-05-05 05:01 33.80924 -118.25091 29065 ft 539 kts 45°
2026-05-05 05:02 33.85243 -118.18060 29065 ft 545 kts 51°
2026-05-05 05:02 33.89599 -118.10599 29053 ft 545 kts 51°
2026-05-05 05:03 33.93928 -118.03188 29054 ft 544 kts 51°
2026-05-05 05:03 33.98319 -117.95771 29043 ft 543 kts 50°
2026-05-05 05:04 34.02712 -117.88363 29045 ft 543 kts 51°
2026-05-05 05:04 34.07081 -117.80939 29061 ft 542 kts 51°
2026-05-05 05:05 34.11525 -117.73615 29060 ft 539 kts 47°
2026-05-05 05:05 34.16299 -117.66666 29055 ft 536 kts 44°
2026-05-05 05:06 34.21148 -117.59897 29052 ft 535 kts 45°
2026-05-05 05:06 34.25936 -117.53006 29040 ft 534 kts 46°
2026-05-05 05:07 34.30627 -117.46053 29018 ft 533 kts 47°
2026-05-05 05:07 34.35309 -117.39096 29024 ft 532 kts 47°
2026-05-05 05:08 34.40007 -117.32155 29032 ft 532 kts 47°
2026-05-05 05:08 34.44691 -117.25236 29045 ft 530 kts 47°
2026-05-05 05:09 34.49366 -117.18322 29041 ft 529 kts 47°
2026-05-05 05:09 34.54000 -117.11457 29030 ft 528 kts 48°
2026-05-05 05:10 34.58641 -117.04546 29007 ft 527 kts 48°
2026-05-05 05:10 34.63278 -116.97635 28983 ft 526 kts 48°
2026-05-05 05:11 34.67868 -116.90787 28971 ft 526 kts 48°
2026-05-05 05:11 34.72483 -116.83899 28978 ft 525 kts 48°
2026-05-05 05:12 34.77089 -116.77005 28978 ft 524 kts 48°
2026-05-05 05:12 34.81669 -116.70118 28962 ft 524 kts 49°
2026-05-05 05:13 34.86499 -116.63506 28959 ft 518 kts 37°
2026-05-05 05:13 34.89277 -116.60729 28829 ft 516 kts 34°
2026-05-05 05:13 34.92085 -116.58012 28483 ft 515 kts 34°
2026-05-05 05:13 34.94844 -116.55343 27956 ft 511 kts 34°
2026-05-05 05:14 34.97613 -116.52663 27432 ft 505 kts 34°
2026-05-05 05:14 35.00349 -116.50008 26928 ft 500 kts 34°
2026-05-05 05:14 35.03055 -116.47376 26429 ft 495 kts 34°
2026-05-05 05:14 35.05736 -116.44763 25945 ft 490 kts 34°
2026-05-05 05:15 35.08397 -116.42170 25471 ft 486 kts 35°
2026-05-05 05:15 35.10936 -116.39470 24995 ft 484 kts 43°
2026-05-05 05:15 35.13248 -116.36516 24537 ft 480 kts 44°
2026-05-05 05:15 35.15534 -116.33564 24070 ft 475 kts 44°
2026-05-05 05:16 35.17793 -116.30641 23617 ft 471 kts 45°
2026-05-05 05:16 35.20036 -116.27735 23093 ft 466 kts 45°
2026-05-05 05:16 35.22247 -116.24863 22565 ft 462 kts 45°
2026-05-05 05:16 35.24425 -116.21997 22044 ft 458 kts 46°
2026-05-05 05:17 35.26552 -116.19116 21521 ft 454 kts 47°
2026-05-05 05:17 35.28611 -116.16275 21036 ft 450 kts 47°
2026-05-05 05:17 35.30672 -116.13410 20539 ft 445 kts 47°
2026-05-05 05:17 35.32712 -116.10571 20056 ft 441 kts 48°
2026-05-05 05:18 35.34733 -116.07765 19578 ft 437 kts 48°
2026-05-05 05:18 35.36743 -116.04989 19110 ft 433 kts 48°
2026-05-05 05:18 35.38718 -116.02274 18655 ft 430 kts 48°
2026-05-05 05:18 35.40708 -115.99545 18192 ft 427 kts 48°
2026-05-05 05:19 35.42679 -115.96842 17669 ft 423 kts 48°
2026-05-05 05:19 35.44631 -115.94156 17148 ft 420 kts 49°
2026-05-05 05:19 35.46566 -115.91490 16638 ft 417 kts 49°
2026-05-05 05:19 35.48485 -115.88842 16130 ft 413 kts 49°
2026-05-05 05:20 35.50389 -115.86212 15633 ft 410 kts 50°
2026-05-05 05:20 35.52276 -115.83602 15149 ft 407 kts 50°
2026-05-05 05:20 35.54146 -115.81012 14665 ft 403 kts 50°
2026-05-05 05:20 35.56000 -115.78445 14207 ft 400 kts 50°
2026-05-05 05:21 35.57841 -115.75895 13724 ft 397 kts 50°
2026-05-05 05:21 35.59670 -115.73366 13211 ft 393 kts 50°
2026-05-05 05:21 35.61475 -115.70906 13003 ft 381 kts 50°
2026-05-05 05:21 35.63222 -115.68554 13028 ft 363 kts 50°
2026-05-05 05:22 35.64868 -115.66344 13026 ft 346 kts 50°
2026-05-05 05:22 35.66463 -115.64203 13032 ft 332 kts 50°
2026-05-05 05:22 35.67996 -115.62133 13033 ft 325 kts 50°
2026-05-05 05:22 35.69511 -115.60083 13037 ft 323 kts 50°
2026-05-05 05:23 35.71022 -115.58035 13037 ft 323 kts 50°
2026-05-05 05:23 35.72583 -115.56047 13039 ft 324 kts 42°
2026-05-05 05:23 35.74427 -115.54452 13037 ft 326 kts 30°
2026-05-05 05:23 35.76405 -115.53083 13035 ft 326 kts 30°
2026-05-05 05:24 35.78386 -115.51700 13036 ft 326 kts 31°
2026-05-05 05:24 35.80357 -115.50320 13039 ft 326 kts 31°
2026-05-05 05:24 35.82322 -115.48940 13030 ft 326 kts 31°
2026-05-05 05:24 35.84297 -115.47552 13037 ft 326 kts 31°
2026-05-05 05:25 35.86241 -115.46184 13035 ft 326 kts 31°
2026-05-05 05:25 35.88209 -115.44798 13042 ft 325 kts 31°
2026-05-05 05:25 35.90172 -115.43416 13031 ft 325 kts 31°
2026-05-05 05:25 35.92135 -115.42038 12805 ft 328 kts 31°
2026-05-05 05:26 35.94121 -115.40649 12449 ft 326 kts 31°
2026-05-05 05:26 35.96106 -115.39266 12084 ft 325 kts 31°
2026-05-05 05:26 35.98069 -115.37882 11669 ft 325 kts 34°
2026-05-05 05:26 35.99742 -115.36054 11328 ft 320 kts 53°
2026-05-05 05:27 36.00852 -115.33717 11029 ft 311 kts 72°
2026-05-05 05:27 36.01332 -115.31167 11008 ft 302 kts 90°
2026-05-05 05:27 36.01187 -115.26003 10316 ft 301 kts 97°
2026-05-05 05:28 36.01058 -115.23429 9980 ft 299 kts 97°
2026-05-05 05:28 36.00925 -115.20881 9612 ft 297 kts 98°
2026-05-05 05:28 36.00792 -115.18356 9399 ft 289 kts 97°
2026-05-05 05:28 36.00669 -115.15956 9283 ft 278 kts 97°
2026-05-05 05:29 36.00549 -115.13611 9160 ft 268 kts 98°
2026-05-05 05:29 36.00436 -115.11355 9044 ft 258 kts 97°
2026-05-05 05:29 36.00327 -115.09172 8856 ft 253 kts 98°
2026-05-05 05:29 36.00217 -115.07018 8616 ft 250 kts 98°
2026-05-05 05:30 36.00108 -115.04893 8389 ft 244 kts 98°
2026-05-05 05:30 36.00005 -115.02856 8172 ft 234 kts 98°
2026-05-05 05:30 35.99912 -115.00893 7975 ft 223 kts 96°
2026-05-05 05:30 35.99879 -114.98987 7625 ft 221 kts 95°
2026-05-05 05:31 35.99872 -114.97094 7277 ft 220 kts 95°
2026-05-05 05:31 35.99870 -114.95214 6964 ft 218 kts 93°
2026-05-05 05:31 36.00180 -114.93361 6652 ft 226 kts 68°
2026-05-05 05:31 36.01105 -114.91799 6535 ft 227 kts 42°
2026-05-05 05:32 36.02457 -114.90830 6555 ft 221 kts 17°
2026-05-05 05:32 36.03955 -114.90608 6529 ft 216 kts 353°
2026-05-05 05:32 36.05374 -114.91107 6127 ft 213 kts 327°
2026-05-05 05:32 36.06477 -114.92212 5776 ft 199 kts 304°
2026-05-05 05:33 36.07143 -114.93637 5449 ft 185 kts 284°
2026-05-05 05:33 36.07368 -114.95116 5109 ft 167 kts 268°
2026-05-05 05:33 36.07365 -114.96509 4696 ft 158 kts 267°
2026-05-05 05:33 36.07366 -114.97830 4414 ft 149 kts 267°
2026-05-05 05:34 36.07367 -114.99083 4215 ft 143 kts 268°
2026-05-05 05:34 36.07367 -115.00310 4018 ft 142 kts 267°
2026-05-05 05:34 36.07367 -115.01523 3840 ft 141 kts 268°
2026-05-05 05:34 36.07367 -115.02740 3661 ft 141 kts 267°
2026-05-05 05:35 36.07368 -115.03951 3475 ft 141 kts 268°
2026-05-05 05:35 36.07369 -115.05145 3285 ft 140 kts 268°
2026-05-05 05:35 36.07369 -115.06341 3095 ft 140 kts 268°
2026-05-05 05:35 36.07379 -115.07555 2924 ft 141 kts 268°
2026-05-05 05:36 36.07394 -115.08768 2728 ft 141 kts 265°
2026-05-05 05:36 36.07368 -115.09979 2563 ft 141 kts 268°
2026-05-05 05:36 36.07365 -115.11190 2419 ft 140 kts 268°
2026-05-05 05:36 36.07369 -115.12406 2250 ft 140 kts 265°
2026-05-05 05:37 36.07366 -115.13545 2188 ft 116 kts 272°
2026-05-05 05:37 36.07362 -115.14312 2191 ft 64 kts 269°
2026-05-05 05:37 36.07367 -115.14650 2190 ft 28 kts 281°
2026-05-05 05:37 36.07387 -115.14840 2191 ft 21 kts 280°
2026-05-05 05:38 36.07446 -115.14996 2189 ft 18 kts 298°
2026-05-05 05:38 36.07519 -115.15121 2188 ft 17 kts 322°
2026-05-05 05:38 36.07611 -115.15182 2190 ft 14 kts 336°
2026-05-05 05:38 36.07700 -115.15234 2190 ft 14 kts 336°
2026-05-05 05:39 36.07792 -115.15285 2190 ft 15 kts 335°
2026-05-05 05:39 36.07887 -115.15342 2190 ft 16 kts 334°
2026-05-05 05:39 36.07990 -115.15398 2191 ft 17 kts 340°
2026-05-05 05:39 36.08099 -115.15436 2189 ft 16 kts
2026-05-05 05:40 36.08115 -115.15341 2191 ft 12 kts 103°
2026-05-05 05:40 36.08100 -115.15249 2190 ft 10 kts 101°
2026-05-05 05:40 36.08092 -115.15170 2188 ft 8 kts 80°
2026-05-05 05:40 36.08104 -115.15105 2189 ft 9 kts 90°
2026-05-05 05:41 36.08102 -115.15030 2192 ft 8 kts 91°
2026-05-05 05:41 36.08101 -115.14987 2189 ft 8 kts 90°
2026-05-05 05:41 36.08103 -115.14903 2192 ft 11 kts 86°
2026-05-05 05:41 36.08123 -115.14820 2192 ft 9 kts 61°
2026-05-05 05:42 36.08135 -115.14793 2189 ft 1 kts 62°
2026-05-05 05:42 36.08136 -115.14791 2189 ft 0 kts 62°
2026-05-05 05:43 36.08135 -115.14791 2189 ft 0 kts 62°